Regional Weather Roundup
Issued by NWS Charleston, SC

Current Version | Previous Version | Graphics & Text | Print | Product List | Glossary On
Versions: 1 2 3 4 5 6 7 8 9 10 11 12 13 14 15 16 17 18 19 20 21 22 23 24 25 26 27 28 29 30 31 32 33 34 35 36 37 38 39 40 41 42 43 44 45 46 47 48 49 50
000
ASUS42 KCHS 291110
RWRCHS
REGIONAL WEATHER ROUNDUP
NATIONAL WEATHER SERVICE CHARLESTON SC
600 AM EST MON DEC 29 2014

NOTE: "FAIR" INDICATES FEW OR NO CLOUDS BELOW 12,000 FEET WITH NO
SIGNIFICANT WEATHER AND/OR OBSTRUCTIONS TO VISIBILITY.

NOT ALL STATIONS ARE QUALITY CONTROLLED BY THE NATIONAL
WEATHER SERVICE. USE DATA WITH CAUTION...ESPECIALLY
DEWPOINT OBSERVATIONS.

SCZ027-030-031-034>040-042>050-291200-
...SOUTHEAST SOUTH CAROLINA...

CITY           SKY/WX    TMP DP  RH WIND       PRES   REMARKS
N CHARLESTON   PTCLDY    58  57  97 S6        30.02F
WATERFRONT PRK   N/A     63 N/A N/A SW5         N/A
MOUNT PLEASANT LGT RAIN  63  63 100 SW3       30.03F
PINOPOLIS        N/A     64  63  94 VRB2      29.92F
MONCKS CORNER  FAIR      59  57  94 CALM      30.01F FOG
SUMMERVILLE    FAIR      61  61 100 S3        30.02S
BEAUFORT MCAS  CLOUDY    64  62  93 SW12      30.02F
BEAUFORT ARPT  PTSUNNY   63  63 100 SW3       30.03R
HILTON HEAD IS NOT AVBL
WALTERBORO     CLOUDY    63 N/A N/A SW10G16   30.03R
ALLENDALE      PTSUNNY   63  61  94 CALM      30.00S

...SOUTHERN MIDLANDS AND PEE DEE...

CITY           SKY/WX    TMP DP  RH WIND       PRES   REMARKS
GEORGETOWN     NOT AVBL
KINGSTREE      NOT AVBL
ORANGEBURG     CLOUDY    61  59  93 SW9       30.00S FOG
BARNWELL       CLOUDY    63  63 100 SW5       29.99F
AIKEN          HVY RAIN  59  59 100 CALM      30.01F VSB 3/4
MANNING        CLOUDY    61 N/A N/A CALM      30.00S VSB 1/2
COLUMBIA       CLOUDY    60  58  92 CALM      29.99S
SUMTER         CLOUDY    59  57  94 NE2       29.98F
FLORENCE       CLOUDY    61  58  90 NW3       30.02R
MYRTLE BEACH   CLOUDY    59  55  88 CALM      30.03F VSB 1/4
N MYRTLE BEACH FOG       58  57  97 CALM      30.02S VSB 1/4

$$

GAZ063-065-086>088-099>101-113>116-118-119-134>141-150-291200-
...SOUTHEAST GEORGIA...

CITY           SKY/WX    TMP DP  RH WIND       PRES   REMARKS
SAVANNAH ARPT  CLOUDY    63  61  93 SW7       30.04S
HUNTER AAF     CLOUDY    63  63 100 SW6       30.02S
FORT STEWART   CLOUDY    63  62  95 S1        30.02F
STATESBORO     PTCLDY    60  60 100 S3        30.01F
SYLVANIA       PTSUNNY   60  60 100 CALM      30.02S FOG
CLAXTON        PTSUNNY   63  63 100 S5        30.00F FOG

...CSRA...CENTRAL AND FAR SOUTHEAST GEORGIA...

CITY           SKY/WX    TMP DP  RH WIND       PRES   REMARKS
THOMSON        CLOUDY    60  60 100 N6        30.07R
AUGUSTA-BUSH   LGT RAIN  60  59  96 NW14      30.01R FOG
AUGUSTA-DANIEL LGT RAIN  60  58  92 NW14G22   30.02R FOG
SWAINSBORO     CLOUDY    66  66 100 S3        30.01S
VIDALIA        CLOUDY    63  63 100 CALM      30.02R FOG
EASTMAN        CLOUDY    64  64 100 NW8G16    30.06R
HAZLEHURST     CLOUDY    66  66 100 SW3       30.01S
ALMA           CLOUDY    64  63  96 S7        30.02F
WAYCROSS       CLOUDY    68  67  97 SW8       30.03S
JESUP          CLOUDY    66  64  94 CALM      30.03F
BAXLEY         CLOUDY    66  64  94 S7        30.01F
BRUNSWICK      MOCLDY    64  61  88 SW5       30.06F
SAINT SIMONS   CLOUDY    64  62  93 SW5       30.06S

$$

SCZ027-028-034-036>038-045-046-048>050-GAZ119-141-291200-
...LAKE AND SUPPLEMENTAL COASTAL OBSERVATIONS...

STATION/POSITION TIME  TEMP    WIND        PRES    WAVE   SWELL
                       AIR SEA DIR/SP/G            HT/PER HT/PER/DIR
                 (UTC) (F)     (DEG/KT/KT) (MB)    (FT/S) (FT/S/D)
UPR LAKE MARION  NOT AVBL
WINYAH BAY       1000   60     250/  3     1016.0S
LAKE MURRAY      1000   58     360/  1/  3 1015.2F
ACE BASIN NERRS  1000   58        CALM     1017.0S
FORT PULASKI     1100   62 57  220/  3/  7 1017.4S
SAPELO ISLAND    1000   61     250/  5     1017.0S

$$

ANZ835-935-AMZ111-154-330-350-352-354-370-450-454-472-291200-
...C-MAN AND BUOY OBSERVATIONS...

STATION/POSITION TIME  TEMP    WIND        PRES    WAVE   SWELL
                       AIR SEA DIR/SP/G            HT/PER HT/PER/DIR
                 (UTC) (F)     (DEG/KT/KT) (MB)    (FT/S) (FT/S/D)
BUOY 41004       1100   72 72  240/ 14/ 16 1016.7R   3/12   2/12
BUOY 41008       1100   61 59  250/ 10/ 12 1017.8R   2/14   2/ 40/14
FOLLY BEACH CMAN 1000   61     240/  8/ 12 1017.5R
CAPERS NEARSHORE 1000   59     260/  8/  8   N/A
FRIPP NEARSHORE  NOT AVBL


STATION/POSITION TIME  TEMP    WIND        PRES    WAVE   SWELL
                       AIR SEA DIR/SP/G            HT/PER HT/PER/DIR
                 (UTC) (F)     (DEG/KT/KT) (MB)    (FT/S) (FT/S/D)
5E ST. MARYS GA  1100      62                N/A     2/14   2/100/14
FRYING PAN BUOY  1100   65 68  270/  6/  8 1017.7R   3/13   2/ 60/13
BUOY 41025       1100   62                 1017.3R   2/13
CAPE LOOKOUT NC  1000   60      40/  5/  7 1016.7R
BUOY 41002       1049   74 74  230/ 14/ 16 1019.5R   4/13   3/ 70/13
BUOY 41010       1100   76 77  180/ 16/ 17 1019.2F   3/12   3/ 70/12
ST AUGUSTINE FL  1100   64     200/  7/  9 1018.5R


$$



USA.gov is the U.S. government's official web portal to all federal, state and local government web resources and services.